Powrót do katalogu

USA 167

AktywnyMilitariaGEO
NORAD 27691·PAYLOAD·🇺🇸 United States

Wystrzelony Mar 11, 2003 z Cape Canaveral Space Force Station

Loading…

TLE

ŚwieżeSource: Space-Track

Epoka: Sep 14, 2026, 12:04 UTC

1 27691U 03008A   26257.50295539 -.00000001  00000-0  00000-0 0  9998
2 27691  11.1357  42.5821 0003040 290.4916  79.3950  1.00273870  7676

Śledź USA 167 w czasie rzeczywistym z AllMySat

Download on the App Store